ROMMA est une association bénévole à but non lucratif. Votre soutien est indispensable : ADHERER à ROMMA ou FAIRE un DON

Miribel-les-Echelles - (38, Isère)

Massif de la Chartreuse (760 m)   Longitude: 05° 41' 54'' E   Latitude: 45° 26' 40'' N Station romma n°22
 

Détail journalier du     <<     >>

Température Precipitation Humidité Pression Vent Dir Rafale Dir. rafale Ensol.
Heure (°C) (mm) (%) (hPa) (km/h) (km/h) (min)
01:00 9.209110201O10O0
02:00 8.709210201ONO5ONO0
03:00 8.809210201ONO6ONO0
04:00 8.809210201ONO8ONO0
05:00 8.809410201NO6NO0
06:00 8.509210211N8N0
07:00 8.909310214N15NNO0
08:00 8.1094102208NO0
09:00 9.20.29510232N11NO30
10:00 10.609110234NNE13NNE60
11:00 11.408710246N16NNE60
12:00 11.808610246NNE18NNE60
13:00 12.408410236NNE19N60
14:00 12.708710236NNE18NNE60
15:00 12.708610227NNE19NNE60
16:00 12.908610226N18NO30
17:00 12.408710222O11OSO30
18:00 11.908910221ONO8ONO30
19:00 11.309110232ONO8ONO0
20:00 10.609210231ONO6ONO0
21:00 9.609310232ONO6ONO0
22:00 9.409510242ONO6ONO0
23:00 9.3095102303ONO0
minuit 9.409410231ESE8NE0

Graphique du 25-10-2019

 

Serveur OMMA